Location: Casotto di Corazzello
(39.1500°N, 17.0333°E)
Time: 20:57:20
(UTC+00:00)

Daily predictions for brighter satellites

Satellite Brightness Start Highest point End
(mag) Time Altitude Azimuth Time Altitude Azimuth Time Altitude Azimuth
Cosmos 2150 Rocket 4.0 18:44:05 10° NNW 18:49:19 84° ENE 18:54:35 10° SSE
Cosmos 2333 Rocket 3.7 18:46:27 10° SE 18:49:52 17° E 18:53:19 10° ENE
Cosmos 2315 Rocket 4.5 18:43:52 10° NNW 18:50:09 69° W 18:56:27 10° S
H-2A ROCKET BODY 3.4 18:48:21 10° SW 18:51:50 30° SSE 19:01:49 10° ESE
Cosmos 1356 Rocket 3.8 18:48:56 10° NNW 18:53:11 70° W 18:57:20 10° S
ARGOS 3.9 18:47:55 10° S 18:53:13 56° W 18:58:33 10° NNW
ATLAS CENTAUR R/B 1.6 18:52:33 10° WNW 18:54:35 47° SW 18:58:10 10° SSE
MetOp-A 4.2 18:50:30 10° SSE 18:55:51 79° ENE 19:01:14 10° N
CZ-2C R/B 2.6 18:51:30 10° NNE 18:56:55 86° ESE 19:02:10 10° SSW
SL-16 R/B 2.8 18:52:55 10° SW 18:58:32 63° WNW 19:04:10 10° NNE
Delta 2 Rocket 3.2 18:57:31 10° WSW 19:00:53 45° S 19:04:06 10° ESE
Ariane Rocket 3.9 18:56:55 10° S 19:01:51 50° W 19:06:49 10° NNW
BREEZE-M DEB (TANK) 4.0 18:58:35 10° NW 19:02:16 37° NNE 19:05:47 10° E
GEOS 3 Rocket 4.4 18:57:29 10° NE 19:02:16 32° ESE 19:07:00 10° S
Cosmos 1812 Rocket 4.1 19:00:04 10° N 19:04:12 42° E 19:08:17 10° SSE
Cosmos 1602 Rocket 3.5 19:02:31 10° S 19:06:54 71° E 19:11:20 10° NNE
ATLAS 5 CENTAUR R/B 1.3 19:03:02 10° SSW 19:07:01 67° ESE 19:11:24 10° NE
DMSP B5D2-2 4.3 19:02:38 10° N 19:07:51 76° WNW 19:13:02 10° SSW
OAO 2 Rocket 3.7 19:03:36 10° WSW 19:08:40 48° S 19:13:47 10° E
Meteor 2-16 Rocket 4.5 19:06:59 10° S 19:13:04 89° W 19:19:11 10° N
Meteor 2-10 Rocket 3.8 19:08:31 10° N 19:13:33 53° ENE 19:18:44 10° SSE
Nadezhda 1 Rocket 4.3 19:08:41 10° N 19:14:58 55° E 19:21:11 10° SSE
Cosmos 1844 Rocket 3.5 19:10:18 10° N 19:15:27 36° ENE 19:19:57 13° ESE
Cosmos 1125 Rocket 3.6 19:11:24 10° NNW 19:16:41 88° WSW 19:21:58 10° SSE
H-2A R/B 4.4 19:17:54 10° SW 19:22:12 24° W 19:26:31 10° NW
CZ-2C R/B 4.4 19:19:09 10° N 19:23:52 62° WNW 19:28:33 10° SSW
SPOT 3 Rocket 3.9 19:24:51 10° S 19:30:00 65° WSW 19:35:13 10° NNW
Cosmos-2242 3.7 19:28:20 10° N 19:32:24 37° ENE 19:35:06 18° SE
Cosmos 1400 Rocket 3.5 19:30:35 10° N 19:34:15 35° ENE 19:36:24 20° SE
Resurs 01 Rocket 1.7 19:31:37 10° S 19:35:57 80° W 19:40:22 10° NNW
Terra 3.8 19:36:04 11° E 19:38:29 16° ENE 19:41:17 10° NNE
Geosat 4.2 19:37:17 13° SSE 19:41:43 68° WSW 19:46:44 10° NNW
BREEZE-M DEB (TANK) 3.2 19:34:56 10° SW 19:43:04 55° SSE 19:45:44 10° ENE
Cosmos 2322 Rocket 4.1 19:40:20 10° WSW 19:45:18 32° WNW 19:50:18 10° N
SAR-Lupe-2 4.2 19:43:55 10° NNE 19:47:17 37° E 19:48:38 26° SE
NOSS 3-3 (A) 3.9 19:42:25 10° SSW 19:47:58 56° ESE 19:54:06 10° NE
NOSS 3-3 (C) 3.9 19:42:31 10° SSW 19:48:04 55° ESE 19:54:13 10° NE
BREEZE M DEB (TANK) 4.1 19:48:06 10° NW 19:50:06 18° NNE 19:51:25 12° ENE
Cosmos 1758 Rocket 3.8 19:48:04 10° SSW 19:52:32 76° W 19:57:03 10° N
IRIS 4.4 19:50:40 10° W 19:53:53 57° N 19:55:22 21° ENE
USA 245 3.0 19:54:56 32° SSE 19:56:19 68° ENE 20:00:15 10° N
Cosmos 1455 2.7 19:54:08 10° NNW 19:57:56 58° W 20:00:41 17° S
Cosmos 1328 3.8 19:54:20 12° S 19:57:56 79° W 20:01:55 10° N
Cosmos 1538 Rocket 4.1 19:58:35 15° S 20:02:56 57° ESE 20:08:10 10° NNE
COSMOS 2428 2.7 20:02:10 10° S 20:07:45 65° ESE 20:13:22 10° NNE
Cosmos 1703 4.1 20:05:07 10° SSW 20:08:52 48° W 20:12:38 10° N
Cosmos 2322 4.0 20:04:52 10° SSW 20:10:33 71° WNW 20:16:18 10° NNE
MetOp-B 4.5 20:06:51 18° S 20:10:53 63° WSW 20:16:13 10° NNW
OAO 3 Rocket 3.9 20:06:56 10° W 20:11:28 38° SSW 20:12:52 31° SSE
Cosmos 1844 3.7 20:07:09 10° NNW 20:12:57 88° ENE 20:16:01 29° SSE
Cosmos 2181 Rocket 4.1 20:07:40 10° N 20:13:55 60° E 20:17:11 28° SSE
DELTA 2 R/B (1) 3.6 20:08:31 10° SW 20:13:57 57° SSE 20:19:26 10° E
Cosmos 1953 Rocket 3.6 20:12:55 20° SSW 20:15:50 79° W 20:20:10 10° N
Cosmos 773 Rocket 4.3 20:11:25 10° SSW 20:16:41 68° WNW 20:21:59 10° NNE
Cosmos 2237 Rocket 3.0 20:17:54 28° ESE 20:18:47 30° ESE 20:23:38 10° NE
ERS-1 Rocket 3.0 20:16:49 32° SE 20:19:02 64° ENE 20:24:02 10° N
Cosmos 2219 Rocket 2.1 20:14:01 10° SSW 20:19:35 88° WNW 20:25:14 10° NNE
Cosmos 2360 Rocket 4.1 20:17:36 10° WSW 20:22:31 30° WNW 20:27:29 10° N
ATLAS CENTAUR R/B 2.1 20:20:44 10° NNW 20:24:05 33° NE 20:24:46 30° ENE
USA 215 3.2 20:17:45 10° NE 20:24:20 86° SE 20:30:53 10° SW
SPOT 5 3.0 20:23:12 35° SE 20:25:11 63° ENE 20:29:58 10° N
Meteor 1-27 4.4 20:20:08 10° N 20:25:51 63° ENE 20:28:18 34° SSE
Cosmos 1869 4.5 20:23:18 10° NNE 20:26:47 28° ENE 20:27:01 27° E
Landsat 7 4.3 20:26:08 25° SSW 20:28:44 55° W 20:33:24 10° NNW
Cosmos 1842 Rocket 4.2 20:24:41 10° N 20:28:46 38° ENE 20:29:24 36° E
Atlas Centaur 2 3.1 20:27:44 10° WSW 20:33:12 36° S 20:34:39 33° SSE
Cosmos 2333 Rocket 2.6 20:27:53 10° SSW 20:33:30 64° WNW 20:39:12 10° NNE
Cosmos 967 Rocket 4.4 20:31:55 13° SSW 20:37:49 73° ESE 20:44:17 10° NNE
NOSS 0 Rocket 3.9 20:38:24 30° S 20:41:26 64° ESE 20:47:31 10° NNE
Cosmos 1315 Rocket 2.8 20:45:06 10° NNW 20:49:13 80° W 20:49:46 64° SSW
CARTOSAT-1 3.9 20:49:41 44° SSW 20:50:44 58° W 20:55:01 10° NNW
Cosmos 1892 3.4 20:51:28 40° ENE 20:51:28 40° ENE 20:54:26 10° NNE
Meteor 2-2 Rocket 4.4 20:45:48 10° N 20:51:31 59° ENE 20:53:03 44° SE
OAO 2 Rocket 3.5 20:48:03 10° W 20:53:13 53° S 20:53:38 52° SSE
USA 267 4.3 20:49:19 14° E 20:54:26 38° NNE 21:00:23 10° NW
Cosmos 2278 Rocket 2.6 20:51:47 10° NNW 20:57:19 51° ENE 20:58:50 40° ESE
Cosmos 1844 Rocket 4.1 20:54:26 10° NW 20:59:10 29° WSW 21:01:37 21° SW
Cosmos 1680 Rocket 3.5 20:59:29 54° SE 21:00:16 61° ESE 21:05:32 10° NNE
Cosmos 1408 4.1 21:03:39 26° NE 21:03:39 26° NE 21:05:37 10° NNE
SL-16 R/B 3.5 21:04:44 24° E 21:04:44 24° E 21:08:23 10° NE
Cosmos 2184 Rocket 4.0 21:08:51 37° SSW 21:11:31 77° W 21:17:50 10° N
BREEZE-M R/B 3.6 21:02:10 10° WNW 21:11:43 78° SW 21:12:48 58° SSE
Cosmos 2221 2.5 21:10:43 10° NNW 21:15:05 74° W 21:15:14 72° WSW
In-Cosmos 22 Rocket 4.0 21:14:18 54° SSW 21:15:34 83° W 21:20:54 10° N
Terra 2.2 21:14:57 49° SW 21:15:45 55° W 21:20:26 10° NNW
Cosmos 923 Rocket 4.2 21:16:24 41° SW 21:18:12 69° WNW 21:23:29 10° NNE
Cosmos 2058 3.2 21:27:38 60° WNW 21:27:38 60° WNW 21:31:40 10° N
TSX-5 4.1 21:26:54 10° NNW 21:30:04 66° NNW 21:30:04 66° NNW
NOSS 3-4 (A) 4.1 21:26:09 10° NNW 21:33:10 61° NE 21:36:04 39° ESE
NOSS 3-4 (C) 4.2 21:26:16 10° NNW 21:33:18 61° NE 21:36:12 38° ESE
Cosmos 1825 3.3 21:39:57 39° NNE 21:39:57 39° NNE 21:42:26 10° NNE
Cosmos 1624 Rocket 4.3 21:35:49 10° N 21:40:55 52° ENE 21:41:12 52° E
Cosmos 1980 4.4 21:41:49 27° WSW 21:44:32 48° WNW 21:50:01 10° NNE
Cosmos 1076 Rocket 4.4 21:47:32 41° W 21:47:37 41° WNW 21:51:41 10° N
EO 1 Delta rocket 4.3 21:42:23 10° N 21:47:45 85° E 21:48:46 64° S
Cosmos 2154 Rocket 4.4 21:49:47 42° SW 21:51:37 57° W 21:57:44 10° N
Nadezhda 3 Rocket 4.1 21:47:47 10° NNW 21:54:05 67° W 21:55:18 55° SW
Cosmos 2151 3.5 21:55:43 57° N 21:55:43 57° N 21:59:11 10° N
Cosmos 2341 Rocket 3.8 21:55:15 68° S 21:56:07 85° E 22:02:21 10° N
DELTA 2 R/B (1) 3.5 21:54:43 10° W 22:00:20 86° N 22:01:15 63° ENE
Thor Agena Rocket 3.7 21:56:03 10° N 22:01:06 63° WNW 22:01:29 61° W
ATLAS 2AS CENTAUR R/B 2.7 21:53:39 10° NNW 22:01:08 82° ENE 22:02:39 58° SE
ATLAS CENTAUR R/B 3.8 22:00:23 10° WNW 22:00:56 12° W 22:00:56 12° W
Cosmos 2237 Rocket 3.4 21:59:39 22° WSW 22:02:40 37° WNW 22:07:57 10° N
BREEZE-M DEB (TANK) 4.2 22:01:29 10° NW 22:03:24 18° N 22:03:24 18° N
Spot 4 4.0 22:06:50 67° WNW 22:06:50 67° WNW 22:11:12 10° NNW
Cosmos 1371 Rocket 4.0 22:03:45 10° NNW 22:08:51 74° W 22:08:51 74° W
Cosmos 2344 3.8 22:05:03 22° SW 22:10:10 64° NW 22:17:59 10° NNE
Meteor 2-12 Rocket 4.4 22:09:55 65° ESE 22:10:15 67° E 22:16:20 10° NNE
SL-8 Rocket 3.8 22:11:02 74° SSE 22:11:36 83° E 22:17:46 10° N
Cosmos 1151 Rocket 3.9 22:12:30 10° N 22:15:44 46° NNE 22:15:44 46° NNE
ALOS 2 3.2 22:18:57 55° N 22:18:57 55° N 22:22:28 10° N
Cosmos 1420 Rocket 4.2 22:18:48 10° NNW 22:23:55 66° ENE 22:23:55 66° ENE
Cosmos 1727 Rocket 4.3 22:22:41 10° N 22:28:49 54° E 22:29:28 52° ESE
Cosmos 2056 Rocket 4.0 22:27:34 10° NNW 22:32:26 52° W 22:32:26 52° W
GP-B 3.8 22:29:35 10° N 22:33:05 51° NNW 22:33:05 51° NNW
USA 267 3.1 22:36:39 67° SSW 22:37:07 70° SW 22:43:41 10° NW
Cosmos 1606 4.4 22:35:09 10° NNW 22:37:25 31° NW 22:37:25 31° NW
Cosmos 1943 4.3 22:41:16 33° E 22:41:16 33° E 22:45:30 10° NE
Cosmos 2278 Rocket 3.9 22:36:52 10° NW 22:40:40 21° W 22:40:40 21° W
Cosmos 44 4.5 22:40:50 31° WNW 22:41:06 31° NW 22:45:02 10° NNE
Cosmos 1339 Rocket 4.5 22:35:44 10° NNW 22:42:03 72° W 22:42:35 68° SW
Cosmos 1048 Rocket 4.3 22:42:50 59° ENE 22:42:50 59° ENE 22:47:22 10° NNE
Gbstr 26 Del rocket 4.4 22:44:20 32° NNE 22:44:20 32° NNE 22:46:59 10° NE
Cosmos 2297 3.7 22:38:22 10° NNW 22:43:52 75° W 22:43:52 75° W
Cosmos 1943 Rocket 2.6 22:39:24 10° NNW 22:44:56 51° ENE 22:45:29 49° E
SL-16 R/B 3.0 22:46:35 39° W 22:47:41 44° WNW 22:53:06 10° N
Cosmos 371 Rocket 3.8 22:47:27 10° NNW 22:51:21 56° NW 22:51:21 56° NW
Lacrosse 5 rocket 3.8 22:55:01 10° NNW 22:57:38 17° NNE 22:59:14 13° ENE
Cosmos 1452 Rocket 3.6 22:54:34 10° NNW 22:59:20 73° NNW 22:59:20 73° NNW
Cosmos 1515 Rocket 4.5 22:57:01 10° N 23:00:08 46° NNW 23:00:08 46° NNW
SeaSat 1 4.4 23:05:39 10° ENE 23:08:09 19° E 23:08:09 19° E
Meteor 2-3 Rocket 4.4 23:12:54 42° W 23:13:15 43° WNW 23:18:40 10° N
Cosmos 2228 Rocket 3.7 23:17:50 10° N 23:21:26 55° NNW 23:21:26 55° NNW
Cosmos 1603 3.6 23:22:37 84° WNW 23:22:37 84° WNW 23:28:21 10° NNE
Resurs 1-4 Rocket 3.9 23:19:44 10° NE 23:23:26 19° E 23:23:48 19° E
Meteor 2-6 Rocket 4.0 23:23:16 10° N 23:28:38 82° ENE 23:28:38 82° ENE
Sich 1 3.9 23:29:53 45° NE 23:29:53 45° NE 23:33:06 10° NNE
Meteor 1-10 Rocket 4.2 23:24:35 10° N 23:30:09 70° E 23:30:21 69° E
Cosmos 44 Rocket 3.6 23:32:06 61° NNE 23:32:06 61° NNE 23:36:04 10° NNE
Cosmos 1821 Rocket 3.9 23:30:58 69° WSW 23:31:24 72° W 23:37:30 10° N
CZ-4 R/B 4.1 23:28:17 10° N 23:32:25 61° NNW 23:32:25 61° NNW
Cosmos 2369 Rocket 2.0 23:27:41 10° NNW 23:33:18 88° ENE 23:33:18 88° ENE
Lacrosse 5 3.7 23:36:20 20° E 23:36:20 20° E 23:38:46 10° ENE
Cosmos 304 Rocket 4.5 23:31:23 10° NNW 23:35:00 46° NW 23:35:00 46° NW
Cosmos 2123 Rocket 4.1 23:33:37 10° N 23:39:46 65° E 23:40:49 56° SE
Cosmos 1535 Rocket 4.4 23:40:56 68° SSE 23:41:44 79° E 23:48:04 10° N
COSMOS 2455 3.0 23:36:14 10° NW 23:41:47 57° W 23:41:47 57° W
Cosmos 1656 Rocket 4.1 23:38:07 10° NNW 23:43:26 53° ENE 23:44:30 45° ESE
ATLAS 2AS CENTAUR R/B 4.4 23:46:35 10° WNW 23:50:03 17° W 23:50:03 17° W
USA 32 4.0 23:51:42 76° WNW 23:51:42 76° WNW 23:56:52 10° N
Cosmos 1812 4.0 23:48:58 10° N 23:51:25 38° N 23:51:25 38° N
